Temp
4 4 3 3 3 3 2 2 1 1 1 1 0 -0 -1 -1 -1 -2 -2 -3 -3 -3 -3 -3 -3 -3 -2 -2 -2 -2 -2 -2 -2 -2 -2 -2 -2 -1 -0 1 1 1 2
4 4 4 3 3 3 3 2 2 2 2 1 1 1 0 -1 -1 -1 -2 -3 -3 -3 -3 -3 -3 -3 -3 -2 -2 -2 -2 -2 -2 -2 -2 -2 -2 -2 -2 -0 -0 0 1
4 4 4 4 4 3 3 3 2 2 2 2 2 1 1 0 -1 -1 -2 -3 -3 -3 -3 -3 -3 -3 -3 -2 -2 -2 -2 -2 -2 -2 -2 -2 -2 -2 -2 -2 -2 0 -0
5 4 4 4 4 3 3 3 3 3 2 2 2 1 1 0 -1 -1 -2 -2 -3 -3 -3 -3 -3 -2 -3 -3 -3 -2 -3 -2 -2 -2 -2 -2 -2 -2 -2 -2 -1 -1 -0
5 4 4 4 4 4 3 3 3 3 2 2 2 1 1 1 -1 -2 -2 -2 -2 -2 -3 -3 -3 -3 -2 -3 -3 -3 -3 -3 -3 -3 -3 -3 -3 -2 -3 -3 -3 -2 -1
5 4 4 4 4 3 3 3 3 3 2 2 2 1 1 1 0 -1 -2 -2 -2 -2 -2 -2 -3 -3 -3 -3 -3 -4 -4 -4 -3 -3 -4 -4 -4 -4 -3 -4 -3 -4 -3
5 4 4 4 3 3 3 3 3 2 2 2 2 1 1 1 1 0 -1 -2 -2 -2 -1 -2 -2 -3 -3 -3 -3 -4 -4 -3 -4 -4 -4 -4 -5 -4 -4 -4 -4 -4 -4
5 5 4 4 4 3 3 3 3 2 2 2 2 1 1 1 1 1 1 -1 -2 -2 -1 -1 -2 -3 -3 -3 -3 -3 -4 -4 -3 -3 -4 -4 -4 -4 -4 -4 -5 -4 -3
6 5 5 4 4 4 3 3 3 2 2 2 2 1 1 1 1 1 1 -1 -1 -2 -1 -1 -2 -3 -3 -3 -3 -4 -4 -4 -3 -3 -3 -3 -4 -4 -4 -4 -4 -5 -4
7 6 5 5 4 4 4 3 3 3 2 2 2 1 1 1 1 1 0 -2 -2 -1 -2 -2 -2 -2 -4 -4 -4 -4 -4 -2 -2 -3 -3 -3 -3 -4 -4 -4 -5 -5 -5
6 5 5 5 4 4 4 3 3 3 2 2 2 1 1 0 1 0 0 -1 -2 -1 -3 -2 -1 -1 -1 -2 -2 -4 -4 -2 -2 -2 -4 -4 -3 -3 -3 -3 -3 -4 -4
6 5 5 5 4 4 4 3 3 3 2 2 2 1 1 0 0 0 0 -0 -0 -1 -3 -3 -2 -1 -1 -2 -2 -2 -2 -2 -2 -3 -4 -4 -4 -4 -3 -2 -2 -2 -3
6 5 5 4 4 4 4 3 3 2 2 2 1 1 1 -0 -0 -0 -0 -1 -1 -1 -3 -2 -2 -1 -1 -2 -2 -1 -2 -2 -3 -4 -4 -4 -3 -3 -3 -3 -2 -2 -2
6 5 5 4 4 4 3 3 3 2 2 2 1 0 0 -1 -2 -2 -2 -2 -3 -3 -4 -3 -2 -2 -2 -2 -2 -1 -1 -2 -2 -3 -3 -3 -3 -4 -4 -4 -4 -3 -3
5 5 5 4 4 3 3 3 2 2 2 1 1 0 -1 -2 -2 -2 -2 -2 -2 -3 -3 -3 -3 -3 -4 -4 -2 -2 -1 -1 -1 -2 -2 -2 -3 -3 -3 -4 -4 -4 -4
5 5 4 4 4 3 3 2 2 2 1 1 1 -0 -1 -1 -1 -2 -2 -2 -2 -2 -4 -5 -4 -4 -4 -3 -3 -2 -2 -2 -2 -1 -2 -2 -2 -2 -2 -2 -3 -4 -4
5 4 4 4 3 3 3 2 1 1 1 1 0 -0 -1 -1 -2 -2 -2 -2 -3 -3 -5 -5 -5 -4 -4 -4 -3 -4 -3 -3 -2 -2 -2 -2 -2 -2 -2 -3 -4 -4 -4
5 4 3 3 3 3 2 2 1 1 -0 -1 -0 -1 -1 -1 -2 -2 -2 -3 -4 -4 -4 -4 -4 -4 -4 -4 -4 -3 -3 -3 -3 -3 -2 -2 -2 -2 -2 -3 -3 -3 -4
5 4 3 3 2 2 2 1 1 1 0 -0 -0 -1 -1 -1 -2 -2 -2 -3 -4 -5 -4 -4 -4 -4 -4 -4 -4 -3 -3 -3 -3 -3 -2 -2 -2 -2 -2 -3 -3 -3 -3
5 4 3 2 2 2 1 1 0 0 -0 -1 -1 -1 -1 -2 -2 -3 -3 -3 -4 -4 -4 -4 -4 -4 -4 -4 -4 -4 -3 -3 -3 -3 -2 -3 -3 -3 -3 -3 -3 -3 -4
5 4 3 2 1 1 1 0 -0 -0 -1 -1 -1 -1 -1 -2 -3 -3 -3 -3 -4 -4 -4 -4 -4 -4 -4 -4 -4 -3 -3 -3 -3 -3 -2 -3 -3 -3 -3 -3 -3 -4 -4
5 4 3 2 1 0 0 -0 -0 -1 -1 -1 -2 -1 -2 -2 -2 -3 -3 -3 -3 -4 -4 -4 -4 -4 -4 -4 -4 -4 -3 -3 -3 -3 -3 -3 -3 -3 -3 -3 -4 -4 -4
4 3 2 1 1 0 -0 -1 -1 -1 -1 -1 -2 -2 -2 -2 -2 -2 -3 -3 -3 -4 -4 -4 -4 -4 -4 -4 -4 -4 -4 -4 -3 -3 -3 -3 -3 -3 -3 -3 -4 -4 -4
5 4 2 1 1 -0 -1 -0 -1 -1 -1 -1 -2 -2 -2 -2 -2 -2 -3 -3 -3 -4 -4 -4 -4 -4 -4 -4 -4 -4 -4 -4 -3 -3 -3 -3 -3 -3 -3 -3 -3 -4 -4
5 4 3 2 1 -0 -1 -1 -1 -1 -2 -2 -2 -2 -2 -2 -2 -2 -3 -3 -3 -3 -4 -4 -4 -4 -4 -4 -4 -4 -4 -4 -3 -3 -3 -3 -3 -3 -3 -4 -4 -4 -4
5 4 2 1 0 -1 -1 -1 -1 -1 -2 -2 -2 -1 -2 -2 -2 -2 -3 -3 -3 -3 -4 -4 -4 -4 -4 -3 -4 -3 -3 -3 -3 -3 -3 -3 -3 -3 -4 -4 -4 -4 -5
Height
1546 1545 1544 1543 1542 1539 1537 1535 1532 1529 1526 1522 1519 1516 1513 1509 1505 1502 1497 1491 1486 1482 1478 1475 1471 1466 1462 1457 1454 1451 1449 1447 1445 1443 1440 1438 1435 1434 1433 1434 1436 1438 1439
1542 1542 1541 1540 1538 1536 1534 1532 1529 1526 1523 1520 1516 1513 1510 1507 1504 1499 1495 1490 1486 1481 1478 1474 1470 1466 1463 1459 1454 1450 1448 1446 1445 1443 1442 1440 1437 1436 1436 1435 1436 1437 1438
1539 1539 1539 1537 1535 1534 1532 1530 1528 1525 1522 1518 1514 1511 1507 1504 1501 1498 1493 1489 1486 1482 1478 1474 1470 1467 1462 1460 1456 1452 1448 1446 1444 1443 1442 1441 1440 1438 1437 1437 1436 1436 1436
1536 1536 1536 1535 1534 1533 1531 1529 1527 1524 1521 1518 1514 1511 1506 1503 1500 1496 1492 1489 1484 1480 1476 1473 1470 1466 1462 1460 1456 1453 1450 1446 1444 1442 1442 1441 1440 1439 1439 1436 1436 1435 1434
1533 1534 1534 1533 1532 1531 1530 1527 1525 1522 1520 1517 1514 1510 1506 1503 1499 1496 1492 1488 1483 1479 1475 1472 1469 1466 1463 1460 1457 1453 1450 1447 1445 1443 1441 1441 1439 1439 1438 1437 1435 1434 1433
1530 1531 1531 1530 1529 1529 1527 1526 1524 1521 1518 1515 1512 1508 1505 1501 1497 1493 1491 1487 1482 1478 1475 1471 1468 1466 1463 1460 1457 1453 1449 1448 1446 1443 1441 1439 1438 1437 1437 1436 1435 1433 1432
1527 1528 1528 1527 1526 1526 1525 1523 1521 1519 1516 1514 1510 1507 1504 1500 1496 1492 1489 1485 1482 1477 1473 1469 1467 1466 1463 1460 1456 1453 1450 1447 1445 1444 1442 1439 1438 1437 1436 1435 1434 1433 1432
1522 1523 1524 1523 1523 1522 1522 1521 1519 1516 1513 1511 1509 1506 1502 1498 1495 1491 1487 1484 1481 1477 1472 1469 1466 1465 1463 1459 1456 1454 1450 1447 1445 1442 1440 1438 1437 1435 1434 1433 1432 1431 1429
1517 1518 1519 1519 1519 1519 1518 1517 1516 1513 1511 1509 1506 1503 1500 1497 1493 1489 1486 1483 1480 1476 1472 1469 1466 1464 1462 1459 1456 1453 1450 1447 1444 1441 1439 1437 1435 1434 1433 1433 1432 1430 1428
1511 1513 1514 1514 1515 1515 1514 1513 1511 1510 1508 1506 1503 1500 1498 1495 1492 1488 1485 1482 1479 1475 1471 1469 1465 1462 1459 1456 1453 1451 1449 1447 1444 1442 1439 1436 1434 1432 1431 1431 1431 1430 1429
1506 1508 1509 1509 1510 1510 1510 1509 1507 1506 1504 1502 1500 1498 1494 1492 1489 1486 1484 1480 1477 1473 1470 1467 1464 1461 1457 1454 1452 1451 1449 1446 1444 1442 1440 1437 1435 1433 1431 1430 1430 1429 1428
1502 1502 1504 1505 1505 1506 1505 1505 1503 1501 1500 1498 1496 1494 1491 1489 1486 1484 1481 1478 1475 1471 1468 1465 1463 1460 1457 1455 1452 1450 1447 1445 1443 1442 1441 1439 1437 1435 1433 1431 1429 1428 1427
1496 1498 1499 1500 1501 1501 1501 1500 1499 1498 1497 1495 1492 1490 1488 1486 1483 1481 1478 1476 1473 1469 1466 1463 1461 1459 1457 1455 1452 1450 1448 1446 1444 1443 1441 1439 1437 1435 1433 1431 1429 1427 1425
1490 1492 1494 1495 1496 1496 1496 1496 1494 1493 1492 1491 1488 1486 1485 1482 1481 1479 1476 1474 1470 1467 1464 1462 1460 1458 1456 1455 1453 1450 1447 1445 1444 1442 1440 1438 1436 1434 1433 1431 1428 1425 1423
1484 1486 1488 1489 1490 1491 1491 1490 1489 1488 1488 1486 1485 1483 1481 1479 1478 1475 1472 1470 1467 1464 1461 1460 1459 1457 1456 1454 1452 1449 1447 1444 1442 1440 1439 1437 1435 1433 1431 1429 1427 1425 1424
1477 1479 1481 1483 1484 1485 1485 1485 1485 1484 1483 1481 1479 1478 1477 1474 1473 1471 1468 1465 1463 1460 1460 1458 1458 1457 1454 1452 1451 1449 1447 1445 1442 1440 1438 1436 1434 1432 1430 1428 1426 1424 1421
1470 1473 1475 1476 1477 1479 1480 1480 1479 1478 1478 1476 1475 1473 1472 1470 1468 1466 1465 1463 1461 1459 1458 1456 1455 1454 1452 1450 1450 1449 1447 1445 1442 1440 1437 1435 1433 1431 1429 1427 1425 1422 1420
1464 1466 1468 1470 1471 1472 1474 1474 1474 1474 1474 1472 1470 1469 1468 1466 1464 1463 1462 1460 1458 1456 1454 1454 1452 1451 1449 1449 1448 1447 1446 1444 1442 1440 1437 1435 1432 1430 1428 1426 1423 1421 1418
1457 1458 1461 1463 1465 1466 1467 1468 1468 1469 1469 1468 1466 1465 1464 1462 1461 1460 1458 1457 1455 1454 1452 1451 1450 1449 1447 1447 1447 1446 1444 1443 1441 1439 1436 1433 1431 1429 1426 1424 1421 1419 1416
1449 1452 1455 1456 1458 1460 1461 1462 1462 1463 1463 1463 1462 1462 1461 1460 1459 1458 1456 1454 1453 1452 1451 1449 1448 1447 1446 1446 1445 1444 1442 1441 1439 1437 1435 1433 1430 1427 1425 1422 1419 1417 1414
1442 1445 1448 1450 1452 1454 1455 1456 1457 1458 1458 1459 1458 1458 1457 1456 1455 1454 1453 1452 1451 1450 1449 1448 1447 1446 1445 1443 1443 1442 1441 1440 1438 1437 1434 1431 1429 1426 1424 1421 1418 1416 1413
1435 1438 1440 1443 1446 1447 1449 1450 1452 1452 1453 1454 1454 1453 1453 1452 1451 1450 1449 1449 1449 1448 1447 1446 1445 1444 1443 1441 1440 1440 1439 1438 1436 1435 1433 1431 1428 1425 1423 1420 1417 1415 1411
1428 1430 1433 1436 1439 1440 1442 1444 1446 1447 1448 1449 1450 1449 1449 1448 1447 1447 1447 1446 1446 1446 1445 1444 1444 1443 1442 1440 1439 1438 1437 1436 1434 1433 1431 1429 1427 1424 1422 1419 1416 1413 1410
1419 1422 1425 1428 1432 1434 1436 1437 1440 1442 1443 1443 1445 1445 1444 1444 1444 1444 1445 1444 1444 1444 1444 1443 1443 1442 1441 1439 1438 1437 1436 1435 1433 1432 1429 1427 1425 1423 1420 1418 1415 1412 1408
1410 1413 1417 1420 1423 1426 1429 1431 1433 1436 1438 1438 1439 1440 1440 1441 1442 1442 1442 1442 1442 1442 1442 1441 1441 1440 1439 1438 1437 1436 1435 1434 1432 1430 1428 1426 1424 1421 1419 1417 1414 1411 1408
1404 1408 1411 1414 1417 1420 1423 1425 1428 1430 1432 1433 1434 1436 1437 1438 1439 1440 1440 1440 1441 1441 1440 1440 1439 1439 1438 1437 1436 1434 1433 1432 1431 1429 1427 1424 1422 1420 1418 1416 1413 1410 1407
Wind_Speed
7 6 6 7 8 9 10 12 13 14 15 16 17 17 14 15 19 14 16 15 15 15 13 14 14 15 15 16 11 9 9 7 9 9 10 11 9 5 3 4 4 2 3
9 7 6 7 7 8 9 10 12 12 13 15 15 16 14 12 18 17 15 16 15 13 13 13 13 15 15 15 16 9 7 8 7 8 8 9 11 9 7 3 2 1 3
10 9 7 7 7 8 9 10 11 11 12 13 14 15 14 12 12 16 14 16 14 13 12 12 13 14 13 16 14 12 11 10 7 6 7 7 7 8 7 5 5 5 4
12 11 9 8 7 8 8 9 10 11 11 12 13 15 15 12 9 16 17 15 14 12 13 11 11 14 15 14 13 12 12 12 6 6 6 6 7 7 6 7 5 6 8
13 12 10 9 7 8 8 8 9 10 10 11 12 13 13 11 9 11 15 15 16 14 12 11 10 10 11 10 13 12 11 12 8 7 7 6 7 9 10 11 11 10 9
15 13 12 10 9 8 8 9 9 9 10 11 12 13 13 13 11 10 14 14 16 14 14 12 10 9 11 12 14 12 9 8 8 8 7 7 7 10 10 11 13 15 10
16 14 13 11 10 9 8 8 9 9 10 10 11 12 13 13 14 14 13 13 15 15 15 13 10 8 11 12 15 10 9 8 8 7 7 8 8 6 6 7 9 9 10
18 16 14 12 10 10 9 9 9 10 11 11 11 12 13 13 14 15 15 14 14 15 15 14 12 10 11 14 13 10 12 10 11 9 7 7 8 10 9 7 11 13 10
20 18 16 14 12 11 11 12 12 12 13 13 13 13 13 13 13 14 15 13 14 15 15 13 12 9 11 11 10 9 9 10 12 12 10 8 7 9 10 10 10 11 13
21 19 18 16 14 13 13 13 14 14 14 14 14 14 14 14 15 15 15 12 14 15 14 13 12 11 11 10 9 9 12 11 11 10 10 9 7 7 6 7 8 7 9
21 21 20 18 16 15 15 14 14 15 15 15 15 14 16 15 15 15 14 13 14 16 12 12 11 11 11 10 10 8 10 11 11 11 9 10 11 10 7 5 4 5 7
24 23 21 19 18 16 16 15 16 15 15 16 16 15 14 15 15 15 14 13 14 14 12 11 12 12 11 12 11 11 11 10 8 8 7 8 6 8 11 10 8 7 7
26 25 22 20 19 18 17 16 16 16 16 16 16 15 15 15 15 15 14 12 12 13 11 13 12 11 11 11 12 12 12 11 9 8 8 9 9 9 9 10 11 12 11
27 26 24 23 21 20 19 18 17 16 16 16 15 15 15 14 11 13 12 13 14 11 11 13 11 10 10 9 10 12 12 12 11 11 10 10 10 10 9 10 12 12 13
28 27 25 24 23 22 21 20 19 17 16 17 16 16 14 13 12 16 15 13 13 13 14 11 8 7 5 6 8 10 11 11 11 11 11 11 11 10 9 10 11 11 11
29 28 27 25 23 23 22 21 20 18 17 17 17 16 14 17 16 15 14 13 13 12 8 7 6 6 5 5 6 8 11 11 11 10 10 10 11 11 12 11 12 11 12
29 28 27 25 24 23 21 21 19 17 14 16 16 15 15 14 14 13 13 12 12 10 6 6 6 5 5 5 5 8 8 11 12 11 11 11 11 11 12 11 11 12 12
28 29 27 26 24 23 21 20 19 17 14 12 14 13 13 13 13 12 11 10 7 8 6 6 5 4 5 5 5 6 9 8 10 12 11 11 11 12 12 12 12 13 14
29 29 27 26 24 22 21 20 18 16 15 14 14 13 12 11 11 10 10 8 6 5 5 4 4 5 5 5 5 5 6 9 9 11 11 11 12 12 12 13 13 14 15
29 28 26 25 24 22 21 20 18 16 15 14 13 12 12 9 8 9 7 6 5 4 4 3 4 4 5 5 4 5 5 7 8 9 10 10 11 12 12 13 13 14 14
28 27 26 26 24 22 20 19 17 16 15 14 13 12 12 9 8 8 7 6 4 2 2 3 3 3 3 3 3 4 4 6 9 9 10 11 12 13 13 13 13 13 14
27 27 26 26 24 22 20 19 17 16 15 14 13 13 12 10 10 8 5 5 3 2 1 2 2 3 3 3 3 3 3 7 8 9 10 12 12 12 13 13 13 12 13
27 27 27 26 24 22 21 19 18 16 15 14 13 13 12 10 9 7 5 4 3 2 1 1 2 3 2 3 3 3 4 8 7 10 12 12 12 12 12 12 13 13 13
28 27 27 26 25 23 21 19 17 17 16 14 13 14 11 9 8 6 5 5 4 3 2 2 2 3 3 2 2 3 5 7 8 10 11 11 11 11 11 11 11 12 13
29 28 28 27 26 25 22 20 18 17 16 15 13 11 9 8 8 7 7 6 5 4 3 3 3 3 3 3 2 3 5 7 8 9 9 10 10 10 10 10 11 11 12
30 29 28 28 26 25 22 21 20 19 17 15 12 11 10 10 9 8 7 6 5 5 4 4 4 4 4 4 3 3 4 6 7 8 8 9 9 9 9 9 10 9 9
Wind_Direction
255 271 292 309 321 326 330 333 337 339 340 343 344 345 346 348 357 344 347 345 345 344 342 346 344 350 351 9 351 315 329 337 338 343 345 346 350 3 77 163 155 167 55
244 259 278 295 311 321 327 330 334 338 341 342 344 347 344 337 352 350 343 342 344 343 347 352 351 352 356 355 348 2 330 315 326 342 345 353 352 350 358 301 250 237 271
241 252 266 287 304 317 324 330 335 340 342 343 345 346 345 337 340 347 342 341 340 340 340 348 348 346 357 354 349 345 353 359 316 331 339 350 358 356 357 353 342 266 276
239 248 258 277 297 309 317 329 337 341 343 344 346 348 348 345 333 344 342 343 341 339 344 345 349 356 356 352 348 350 337 343 341 315 317 331 340 342 351 335 308 293 273
236 245 258 272 287 300 315 324 333 340 342 343 348 348 350 349 335 349 338 333 337 340 337 332 334 347 353 353 353 350 343 336 354 345 324 322 307 311 326 327 321 326 303
237 243 253 267 283 300 310 317 326 334 338 343 347 349 354 352 341 342 336 330 338 337 337 339 335 346 351 354 354 353 357 346 336 334 328 322 313 314 311 315 308 316 326
237 241 249 259 276 291 302 307 314 325 330 336 342 346 348 350 348 341 338 334 341 339 339 336 342 336 349 349 353 354 359 347 336 325 310 314 320 318 320 330 317 343 340
236 239 244 254 265 280 290 297 305 313 320 327 332 337 342 344 348 344 343 336 338 341 342 340 341 335 342 341 341 342 349 356 349 348 313 287 294 282 315 305 313 323 325
235 239 243 249 259 271 280 285 293 301 310 317 322 328 335 339 342 344 344 334 338 339 344 349 344 343 338 333 331 338 352 352 350 354 348 332 303 284 285 284 302 314 318
235 238 242 248 256 266 274 281 288 295 302 308 315 322 329 337 337 340 341 334 331 334 343 352 351 344 341 337 333 331 339 357 1 357 2 356 353 329 295 284 291 298 301
235 238 243 249 255 264 271 278 284 293 301 308 315 322 323 327 330 333 335 334 329 328 335 345 347 355 352 346 344 339 333 345 353 1 3 359 12 18 19 9 339 327 317
236 240 244 249 255 262 269 276 284 291 298 306 311 315 317 320 322 327 330 326 325 324 325 336 341 346 351 354 1 349 345 348 349 350 350 354 354 354 3 12 11 355 349
236 241 245 249 254 261 267 274 280 288 296 302 306 313 318 319 323 328 327 327 326 322 316 328 337 340 344 360 1 7 4 1 354 346 341 340 344 348 346 341 345 341 337
238 241 244 249 254 259 266 270 277 285 292 300 305 308 312 318 321 326 326 326 328 330 328 328 339 344 338 359 9 11 11 8 7 359 350 344 342 339 333 329 329 330 328
238 241 244 248 252 257 263 269 277 282 287 293 298 301 308 312 310 321 325 321 318 312 321 327 339 349 352 358 16 15 13 12 12 4 3 358 354 349 341 336 335 328 316
239 241 243 247 252 256 262 269 273 279 287 293 296 300 301 306 310 316 319 318 315 317 331 326 340 354 345 343 355 6 14 12 12 9 6 1 358 353 348 346 341 335 326
240 242 244 246 250 254 259 266 274 282 280 284 288 292 297 297 307 318 321 321 318 322 331 335 346 353 329 341 350 350 353 4 8 6 2 359 357 355 352 345 340 338 334
240 243 244 246 249 253 258 262 266 275 280 282 287 291 299 302 310 321 325 327 326 327 330 341 348 337 318 339 356 343 358 351 1 0 357 355 355 356 355 350 344 340 338
240 241 241 244 247 251 256 260 264 269 273 278 286 291 296 302 309 319 325 323 322 320 325 341 340 326 326 350 350 356 346 352 345 355 353 351 351 353 354 351 347 346 345
239 240 241 243 245 248 252 256 259 264 267 271 274 278 288 297 304 306 309 304 302 308 322 343 346 342 342 352 348 349 350 346 345 348 352 352 351 350 349 348 349 346 344
238 239 239 240 242 245 247 250 254 257 261 264 266 274 278 288 287 290 292 295 300 315 344 358 359 350 343 349 349 345 337 339 338 338 352 355 351 347 346 346 346 345 345
235 235 236 237 239 240 242 245 250 251 254 257 263 270 277 281 279 277 274 279 285 306 348 0 355 334 337 350 352 354 340 342 341 341 349 351 349 350 348 345 346 346 346
232 232 232 233 234 235 237 242 245 244 245 249 258 268 273 270 264 255 243 242 245 256 290 326 323 313 321 347 352 360 353 346 346 346 350 347 347 347 349 349 346 347 349
228 229 229 229 230 231 232 235 234 233 238 245 255 261 259 246 239 223 218 221 216 218 225 252 290 301 304 325 333 340 347 347 344 348 343 345 346 347 348 349 350 347 347
224 225 225 225 227 226 229 228 223 227 234 240 247 246 229 216 210 209 206 213 217 220 230 241 258 275 282 288 300 315 328 333 331 335 342 345 347 347 348 350 350 349 351
224 224 224 223 223 223 224 221 219 222 228 235 228 217 210 201 200 202 203 208 217 229 235 246 258 268 277 283 283 304 323 330 332 338 342 348 351 351 351 351 352 354 358